User: anonymous   Login
Location: Mascot Post Office (historical)
(40.2645°N, 99.5462°W)
Time: 17:51:24
(UTC+00:00)
Language:

Cosmos 2154 Rocket - Orbit

View from above orbital plane
View from above orbital plane
View from above satellite
View from above satellite

Ground track
Ground track

The orbit data is extracted from the following two-line orbital elements,

1 21667U 91059B   20263.12323328  .00000075  00000-0  62127-4 0  9997
2 21667  82.9087 202.9819 0020776 172.8275 198.6528 13.75103799459230
Epoch (UTC): 19 September 2020 02:57:27
Eccentricity: 0.0020776
inclination: 82.9087°
perigee height: 966 km
apogee height: 996 km
right ascension of ascending node: 202.9819°
argument of perigee: 172.8275°
revolutions per day: 13.75103799
mean anomaly at epoch: 198.6528°
orbit number at epoch: 45923

The dashed part of the orbit path shows where the satellite is in the earth's shadow,  

DLR